TimeEST,TemperatureF,Dew PointF,Humidity,Sea Level PressureIn,VisibilityMPH,Wind Direction,Wind SpeedMPH,Gust SpeedMPH,PrecipitationIn,Events,Conditions,WindDirDegrees,DateUTC
12:52 AM,24.1,16.0,71,29.81,10.0,Variable,5.8,-,0.00,,Overcast,0,2012-12-24 05:52:00
1:52 AM,21.9,14.0,72,29.83,10.0,WNW,6.9,-,N/A,,Overcast,300,2012-12-24 06:52:00
2:52 AM,21.0,12.0,68,29.86,9.0,WNW,9.2,19.6,0.00,Snow,Light Snow,290,2012-12-24 07:52:00
3:00 AM,19.4,12.2,74,29.81,8.0,West,10.4,24.2,0.00,Snow,Light Snow,280,2012-12-24 08:00:00
3:52 AM,19.0,10.9,71,29.88,5.0,Variable,4.6,-,0.00,Snow,Light Snow,0,2012-12-24 08:52:00
4:52 AM,18.0,10.0,71,29.90,6.0,NW,4.6,-,0.00,Snow,Light Snow,320,2012-12-24 09:52:00
5:52 AM,16.0,9.0,74,29.92,10.0,Calm,Calm,-,0.00,,Overcast,0,2012-12-24 10:52:00
6:52 AM,18.0,9.0,68,29.95,10.0,West,8.1,-,N/A,,Overcast,270,2012-12-24 11:52:00
7:43 AM,17.6,8.6,68,29.90,10.0,Variable,4.6,-,N/A,,Scattered Clouds,0,2012-12-24 12:43:00
7:52 AM,18.0,8.1,65,29.97,10.0,Variable,5.8,-,N/A,,Scattered Clouds,0,2012-12-24 12:52:00
8:00 AM,17.6,8.6,68,29.91,10.0,Variable,4.6,-,N/A,,Mostly Cloudy,0,2012-12-24 13:00:00
8:52 AM,19.0,9.0,65,30.00,10.0,Variable,6.9,20.7,N/A,,Overcast,0,2012-12-24 13:52:00
9:52 AM,19.9,9.0,62,30.02,10.0,Variable,4.6,19.6,N/A,,Overcast,0,2012-12-24 14:52:00
10:52 AM,21.9,10.0,60,30.01,10.0,West,11.5,18.4,N/A,,Overcast,280,2012-12-24 15:52:00
11:52 AM,23.0,12.0,63,29.99,10.0,WSW,9.2,-,0.00,,Overcast,250,2012-12-24 16:52:00
12:06 PM,24.8,12.2,59,29.93,10.0,Variable,5.8,-,N/A,,Overcast,0,2012-12-24 17:06:00
12:52 PM,25.0,10.9,55,29.99,10.0,Variable,4.6,-,N/A,,Overcast,0,2012-12-24 17:52:00
1:52 PM,26.1,12.0,55,30.02,10.0,NW,9.2,-,N/A,,Overcast,310,2012-12-24 18:52:00
2:11 PM,24.8,12.2,59,29.96,10.0,West,9.2,19.6,N/A,,Overcast,280,2012-12-24 19:11:00
2:42 PM,24.8,12.2,59,29.97,10.0,West,8.1,-,N/A,,Scattered Clouds,270,2012-12-24 19:42:00
2:52 PM,25.0,12.0,58,30.03,10.0,Variable,5.8,-,N/A,,Partly Cloudy,0,2012-12-24 19:52:00
3:15 PM,24.8,12.2,59,29.98,10.0,Variable,4.6,-,N/A,,Mostly Cloudy,0,2012-12-24 20:15:00
3:25 PM,24.8,12.2,59,29.98,10.0,WNW,5.8,20.7,N/A,,Overcast,300,2012-12-24 20:25:00
3:52 PM,24.1,12.0,60,30.04,10.0,WNW,4.6,-,N/A,,Overcast,300,2012-12-24 20:52:00
4:20 PM,23.0,12.2,63,29.98,10.0,WNW,3.5,-,N/A,,Mostly Cloudy,290,2012-12-24 21:20:00
4:32 PM,23.0,12.2,63,29.98,10.0,WNW,4.6,-,N/A,,Partly Cloudy,300,2012-12-24 21:32:00
4:52 PM,23.0,12.0,63,30.04,10.0,Variable,4.6,-,N/A,,Clear,0,2012-12-24 21:52:00
5:52 PM,19.9,12.0,71,30.06,10.0,Calm,Calm,-,N/A,,Clear,0,2012-12-24 22:52:00
6:52 PM,18.0,12.0,78,30.06,10.0,Variable,4.6,-,N/A,,Clear,0,2012-12-24 23:52:00
7:52 PM,10.9,7.0,84,30.07,10.0,Calm,Calm,-,N/A,,Clear,0,2012-12-25 00:52:00
8:52 PM,12.9,9.0,84,30.06,10.0,Calm,Calm,-,N/A,,Clear,0,2012-12-25 01:52:00
9:52 PM,10.9,8.1,88,30.07,10.0,Calm,Calm,-,N/A,,Clear,0,2012-12-25 02:52:00
10:52 PM,12.9,10.0,88,30.07,10.0,Calm,Calm,-,N/A,,Clear,0,2012-12-25 03:52:00
11:52 PM,12.0,8.1,84,30.06,10.0,Calm,Calm,-,N/A,,Clear,0,2012-12-25 04:52:00